This demonstration page uses our WeatherBlox Daily Observations layout. Learn more.

Left ArrowRight Arrow

44.8408, -93.29828

Hourly Observations for October 6, 2021

Temp ( °F °C ) Dew Point ( °F °C ) Humidity (%) Winds ( mph kmh ) Pressure ( in mb ) Visibility ( mi km ) Precip ( " mm )
12:53 am 00:53 Clear 59 15 55 12.8 87 87 SE 6 9 30.25 1025 10 16 N/A
1:53 am 01:53 Clear 59 15 55 12.8 87 87 SE 6 9 30.25 1025 10 16 N/A
2:53 am 02:53 Clear 58 14.4 55 12.8 90 90 SE 6 9 30.26 1025 10 16 N/A
3:53 am 03:53 Clear 57 13.9 54 12.2 90 90 SE 3 6 30.26 1025 10 16 N/A
4:53 am 04:53 Clear 58 14.4 54 12.2 87 87 N N/A 30.26 1025 10 16 N/A
5:53 am 05:53 Clear 57 13.9 54 12.2 90 90 SE 5 7 30.26 1025 8 13 N/A
6:53 am 06:53 Clear 57 13.9 54 12.2 90 90 VRB 3 6 30.27 1025 8 13 N/A
7:53 am 07:53 Sunny 57 13.9 55 12.8 93 93 SE 5 7 30.27 1025 7 11 N/A
8:53 am 08:53 Partly Cloudy with Mist and Fog 59 15 56 13.3 90 90 ESE 6 9 30.27 1025 6 10 N/A
9:53 am 09:53 Cloudy 61 16.1 57 13.9 87 87 SE 6 9 30.26 1025 8 13 N/A
10:53 am 10:53 Cloudy 63 17.2 59 15 87 87 SSE 7 11 30.26 1025 9 14 N/A
11:53 am 11:53 Cloudy 66 18.9 60 15.6 81 81 SE 6 9 30.24 1024 10 16 N/A
12:53 pm 12:53 Mostly Cloudy 67 19.4 60 15.6 79 79 SE 3 6 30.22 1024 10 16 N/A
1:44 pm 13:44 Mostly Cloudy 70 21.1 61 16.1 73 73 SE 7 11 30.18 1022 10 16 N/A
1:53 pm 13:53 Mostly Cloudy 71 21.7 61 16.1 71 71 VRB 3 6 30.20 1023 10 16 N/A
2:53 pm 14:53 Mostly Cloudy 72 22.2 60 15.6 66 66 SSE 3 6 30.18 1022 10 16 N/A
3:15 pm 15:15 Mostly Cloudy 72 22.2 60 15.6 66 66 SE 8 13 30.15 1021 10 16 N/A
3:53 pm 15:53 Mostly Cloudy 74 23.3 60 15.6 62 62 SE 7 11 30.16 1021 10 16 N/A
4:53 pm 16:53 Partly Cloudy 74 23.3 59 15 60 60 E 8 13 30.14 1021 10 16 N/A
5:53 pm 17:53 Mostly Cloudy 73 22.8 59 15 62 62 SE 8 13 30.14 1021 10 16 N/A
6:53 pm 18:53 Mostly Cloudy 72 22.2 60 15.6 66 66 ESE 7 11 30.14 1021 10 16 N/A
7:53 pm 19:53 Mostly Cloudy 72 22.2 59 15 64 64 ESE 9 15 30.14 1021 10 16 N/A
8:53 pm 20:53 Mostly Cloudy 71 21.7 59 15 66 66 ESE 8 13 30.13 1020 10 16 N/A
9:53 pm 21:53 Mostly Cloudy 70 21.1 59 15 68 68 SE 7 11 30.13 1020 10 16 N/A
10:53 pm 22:53 Partly Cloudy 68 20 58 14.4 70 70 SE 9 15 30.13 1020 10 16 N/A
11:53 pm 23:53 Partly Cloudy 65 18.3 58 14.4 78 78 SE 6 9 30.14 1021 10 16 N/A

Powered by AerisWeather